Time,TemperatureF,DewpointF,PressureIn,WindDirection,WindDirectionDegrees,WindSpeedMPH,WindSpeedGustMPH,Humidity,HourlyPrecipIn,Conditions,Clouds,dailyrainin,SolarRadiationWatts/m^2,SoftwareType,DateUTC
2015-01-28 00:01:00,43.0,40.8,30.11,North,360,7.0,7.0,92,0.00,-RA,,0.00,0.0,WeatherDisplay:10.37,2015-01-27 23:01:00,
2015-01-28 00:06:00,43.1,40.9,30.11,South,190,10.4,10.4,92,0.00,-RA,,0.00,0.0,WeatherDisplay:10.37,2015-01-27 23:06:00,
2015-01-28 00:11:00,43.2,41.0,30.11,North,360,8.0,8.0,92,0.00,-RA,,0.00,0.0,WeatherDisplay:10.37,2015-01-27 23:11:00,
2015-01-28 00:16:00,43.3,41.1,30.11,SW,215,9.2,9.2,92,0.00,-RA,,0.00,0.0,WeatherDisplay:10.37,2015-01-27 23:16:00,
2015-01-28 00:21:00,43.3,41.1,30.10,North,360,10.4,10.4,92,0.00,-RA,,0.00,0.0,WeatherDisplay:10.37,2015-01-27 23:21:00,
2015-01-28 00:26:00,43.4,41.2,30.10,North,360,8.0,8.0,92,0.00,-RA,,0.00,0.0,WeatherDisplay:10.37,2015-01-27 23:26:00,
2015-01-28 00:31:00,43.4,40.9,30.10,South,191,6.0,6.0,91,0.00,-RA,,0.00,0.0,WeatherDisplay:10.37,2015-01-27 23:31:00,
2015-01-28 00:36:00,43.4,40.9,30.09,North,360,6.0,6.0,91,0.00,-RA,,0.00,0.0,WeatherDisplay:10.37,2015-01-27 23:36:00,
2015-01-28 00:41:00,43.4,40.9,30.09,North,360,9.2,9.2,91,0.00,OVC,,0.00,0.0,WeatherDisplay:10.37,2015-01-27 23:41:00,
2015-01-28 00:46:00,43.4,40.9,30.09,North,360,10.4,10.4,91,0.00,OVC,,0.00,0.0,WeatherDisplay:10.37,2015-01-27 23:46:00,
2015-01-28 00:51:00,43.5,41.0,30.09,SSW,209,8.1,8.1,91,0.00,OVC,,0.00,0.0,WeatherDisplay:10.37,2015-01-27 23:51:00,
2015-01-28 00:56:00,43.5,41.0,30.09,North,360,5.8,5.8,91,0.00,OVC,,0.00,0.0,WeatherDisplay:10.37,2015-01-27 23:56:00,
2015-01-28 01:01:00,43.5,40.8,30.09,North,360,11.5,11.5,90,0.00,OVC,,0.00,0.0,WeatherDisplay:10.37,2015-01-28 00:01:00,
2015-01-28 01:06:00,43.5,40.8,30.08,South,169,8.1,8.1,90,0.00,OVC,,0.00,0.0,WeatherDisplay:10.37,2015-01-28 00:06:00,
2015-01-28 01:11:00,43.5,40.8,30.08,SSW,205,9.0,9.0,90,0.00,OVC,,0.00,0.0,WeatherDisplay:10.37,2015-01-28 00:11:00,
2015-01-28 01:16:00,43.5,40.8,30.08,SW,217,13.8,13.8,90,0.00,OVC,,0.00,0.0,WeatherDisplay:10.37,2015-01-28 00:16:00,
2015-01-28 01:21:00,43.6,40.9,30.07,North,360,11.5,11.5,90,0.00,OVC,,0.00,0.0,WeatherDisplay:10.37,2015-01-28 00:21:00,
2015-01-28 01:26:00,43.7,41.0,30.06,South,186,11.5,11.5,90,0.00,OVC,,0.00,0.0,WeatherDisplay:10.37,2015-01-28 00:26:00,
2015-01-28 01:31:00,43.7,41.0,30.06,North,360,11.5,11.5,90,0.00,OVC,,0.00,0.0,WeatherDisplay:10.37,2015-01-28 00:31:00,
2015-01-28 01:36:00,43.7,41.0,30.06,North,360,11.5,11.5,90,0.00,OVC,,0.00,0.0,WeatherDisplay:10.37,2015-01-28 00:36:00,
2015-01-28 01:41:00,43.7,41.0,30.06,WSW,252,9.2,9.2,90,0.00,OVC,,0.00,0.0,WeatherDisplay:10.37,2015-01-28 00:41:00,
2015-01-28 01:46:00,43.7,41.0,30.06,South,175,10.4,10.4,90,0.00,OVC,,0.00,0.0,WeatherDisplay:10.37,2015-01-28 00:46:00,
2015-01-28 01:51:00,43.7,41.0,30.06,North,360,10.0,10.0,90,0.00,OVC,,0.00,0.0,WeatherDisplay:10.37,2015-01-28 00:51:00,
2015-01-28 01:56:00,43.8,41.1,30.06,SSW,210,9.2,9.2,90,0.00,OVC,,0.00,0.0,WeatherDisplay:10.37,2015-01-28 00:56:00,
2015-01-28 02:01:00,43.8,41.1,30.06,North,360,9.2,9.2,90,0.00,OVC,,0.00,0.0,WeatherDisplay:10.37,2015-01-28 01:01:00,
2015-01-28 02:06:00,43.8,41.1,30.06,North,360,8.1,8.1,90,0.00,OVC,,0.00,0.0,WeatherDisplay:10.37,2015-01-28 01:06:00,
2015-01-28 02:11:00,43.8,41.1,30.05,SSW,211,12.7,12.7,90,0.00,OVC,,0.00,0.0,WeatherDisplay:10.37,2015-01-28 01:11:00,
2015-01-28 02:16:00,43.8,41.3,30.04,North,360,8.1,8.1,91,0.00,OVC,,0.00,0.0,WeatherDisplay:10.37,2015-01-28 01:16:00,
2015-01-28 02:21:00,43.7,41.2,30.03,SW,221,11.0,11.0,91,0.00,OVC,,0.00,0.0,WeatherDisplay:10.37,2015-01-28 01:21:00,
2015-01-28 02:26:00,43.6,41.1,30.03,South,190,13.8,13.8,91,0.00,OVC,,0.00,0.0,WeatherDisplay:10.37,2015-01-28 01:26:00,
2015-01-28 02:31:00,43.6,41.1,30.02,SSW,192,11.5,11.5,91,0.00,OVC,,0.00,0.0,WeatherDisplay:10.37,2015-01-28 01:31:00,
2015-01-28 02:36:00,43.5,41.0,30.01,SSW,202,10.0,10.0,91,0.00,OVC,,0.00,0.0,WeatherDisplay:10.37,2015-01-28 01:36:00,
2015-01-28 02:41:00,43.4,40.9,30.01,South,178,7.0,7.0,91,0.00,OVC,,0.00,0.0,WeatherDisplay:10.37,2015-01-28 01:41:00,
2015-01-28 02:46:00,43.2,40.8,30.01,SSW,194,6.9,6.9,91,0.00,OVC,,0.00,0.0,WeatherDisplay:10.37,2015-01-28 01:46:00,
2015-01-28 02:51:00,43.1,40.7,30.01,SSE,166,5.8,5.8,91,0.00,OVC,,0.00,0.0,WeatherDisplay:10.37,2015-01-28 01:51:00,
2015-01-28 02:56:00,42.9,40.7,30.01,SSW,196,17.3,17.3,92,0.00,OVC,,0.00,0.0,WeatherDisplay:10.37,2015-01-28 01:56:00,
2015-01-28 03:01:00,42.8,40.6,30.00,SSW,198,11.5,11.5,92,0.00,SCT,,0.00,0.0,WeatherDisplay:10.37,2015-01-28 02:01:00,
2015-01-28 03:06:00,42.6,40.4,30.00,SW,225,10.4,10.4,92,0.00,SCT,,0.00,0.0,WeatherDisplay:10.37,2015-01-28 02:06:00,
2015-01-28 03:11:00,42.5,40.3,30.00,SSW,210,9.2,9.2,92,0.00,SCT,,0.00,0.0,WeatherDisplay:10.37,2015-01-28 02:11:00,
2015-01-28 03:16:00,42.4,40.2,29.98,South,180,16.1,16.1,92,0.00,SCT,,0.00,0.0,WeatherDisplay:10.37,2015-01-28 02:16:00,
2015-01-28 03:21:00,42.4,40.2,29.98,South,185,10.4,10.4,92,0.00,SCT,,0.00,0.0,WeatherDisplay:10.37,2015-01-28 02:21:00,
2015-01-28 03:26:00,42.4,40.5,29.98,SSW,198,7.0,7.0,93,0.00,SCT,,0.00,0.0,WeatherDisplay:10.37,2015-01-28 02:26:00,
2015-01-28 03:31:00,42.3,40.4,29.98,SW,214,9.2,9.2,93,0.00,SCT,,0.00,0.0,WeatherDisplay:10.37,2015-01-28 02:31:00,
2015-01-28 03:36:00,42.3,40.4,29.98,North,360,12.7,12.7,93,0.00,SCT,,0.00,0.0,WeatherDisplay:10.37,2015-01-28 02:36:00,
2015-01-28 03:41:00,42.3,40.4,29.98,North,360,15.0,15.0,93,0.00,SCT,,0.00,0.0,WeatherDisplay:10.37,2015-01-28 02:41:00,
2015-01-28 03:46:00,42.3,40.4,29.98,South,188,9.2,9.2,93,0.00,SCT,,0.00,0.0,WeatherDisplay:10.37,2015-01-28 02:46:00,
2015-01-28 03:51:00,42.4,40.5,29.98,SSW,198,13.8,13.8,93,0.00,SCT,,0.00,0.0,WeatherDisplay:10.37,2015-01-28 02:51:00,
2015-01-28 03:56:00,42.4,40.2,29.98,SSW,212,11.5,11.5,92,0.00,SCT,,0.00,0.0,WeatherDisplay:10.37,2015-01-28 02:56:00,
2015-01-28 04:01:00,42.5,40.3,29.98,East,88,12.7,12.7,92,0.00,SCT,,0.00,0.0,WeatherDisplay:10.37,2015-01-28 03:01:00,
2015-01-28 04:06:00,42.5,40.3,29.98,North,360,11.5,11.5,92,0.00,SCT,,0.00,0.0,WeatherDisplay:10.37,2015-01-28 03:06:00,
2015-01-28 04:11:00,42.6,40.4,29.97,SW,234,13.8,13.8,92,0.00,SCT,,0.00,0.0,WeatherDisplay:10.37,2015-01-28 03:11:00,
2015-01-28 04:16:00,42.7,40.5,29.97,North,360,12.7,12.7,92,0.00,SCT,,0.00,0.0,WeatherDisplay:10.37,2015-01-28 03:16:00,
2015-01-28 04:21:00,42.7,40.5,29.97,North,360,10.4,10.4,92,0.00,SCT,,0.00,0.0,WeatherDisplay:10.37,2015-01-28 03:21:00,
2015-01-28 04:26:00,42.8,40.4,29.95,North,360,12.7,12.7,91,0.00,SCT,,0.00,0.0,WeatherDisplay:10.37,2015-01-28 03:26:00,
2015-01-28 04:31:00,42.8,40.4,29.95,SSW,196,11.5,11.5,91,0.00,SCT,,0.00,0.0,WeatherDisplay:10.37,2015-01-28 03:31:00,
2015-01-28 04:36:00,42.9,40.2,29.94,North,360,16.1,16.1,90,0.00,SCT,,0.00,0.0,WeatherDisplay:10.37,2015-01-28 03:36:00,
2015-01-28 04:41:00,42.9,40.2,29.94,SW,219,12.7,12.7,90,0.00,SCT,,0.00,0.0,WeatherDisplay:10.37,2015-01-28 03:41:00,
2015-01-28 04:46:00,42.9,40.2,29.92,South,173,10.4,10.4,90,0.00,SCT,,0.00,0.0,WeatherDisplay:10.37,2015-01-28 03:46:00,
2015-01-28 04:51:00,42.9,40.2,29.92,South,175,10.4,10.4,90,0.00,SCT,,0.00,0.0,WeatherDisplay:10.37,2015-01-28 03:51:00,
2015-01-28 04:56:00,42.9,40.2,29.93,SSE,158,10.4,10.4,90,0.00,SCT,,0.00,0.0,WeatherDisplay:10.37,2015-01-28 03:56:00,
2015-01-28 05:01:00,42.8,40.1,29.92,SSE,165,18.4,18.4,90,0.00,BKN,,0.00,0.0,WeatherDisplay:10.37,2015-01-28 04:01:00,
2015-01-28 05:06:00,42.7,40.0,29.92,North,360,10.4,10.4,90,0.00,BKN,,0.00,0.0,WeatherDisplay:10.37,2015-01-28 04:06:00,
2015-01-28 05:11:00,42.7,40.0,29.92,North,360,15.0,15.0,90,0.00,BKN,,0.00,0.0,WeatherDisplay:10.37,2015-01-28 04:11:00,
2015-01-28 05:16:00,42.7,40.0,29.92,North,360,12.7,12.7,90,0.00,BKN,,0.00,0.0,WeatherDisplay:10.37,2015-01-28 04:16:00,
2015-01-28 05:21:00,42.6,39.9,29.92,South,185,18.4,18.4,90,0.00,BKN,,0.00,0.0,WeatherDisplay:10.37,2015-01-28 04:21:00,
2015-01-28 05:26:00,42.6,39.9,29.92,SSE,168,19.6,19.6,90,0.00,BKN,,0.00,0.0,WeatherDisplay:10.37,2015-01-28 04:26:00,
2015-01-28 05:31:00,42.6,39.6,29.92,South,191,17.3,17.3,89,0.00,BKN,,0.00,0.0,WeatherDisplay:10.37,2015-01-28 04:31:00,
2015-01-28 05:36:00,42.6,39.6,29.92,North,360,13.8,13.8,89,0.00,BKN,,0.00,0.0,WeatherDisplay:10.37,2015-01-28 04:36:00,
2015-01-28 05:41:00,42.7,39.7,29.91,North,360,17.0,17.0,89,0.00,OVC,,0.00,0.0,WeatherDisplay:10.37,2015-01-28 04:41:00,
2015-01-28 05:46:00,42.6,39.6,29.91,WSW,244,14.0,14.0,89,0.00,OVC,,0.00,0.0,WeatherDisplay:10.37,2015-01-28 04:46:00,
2015-01-28 05:51:00,42.6,39.6,29.90,North,360,19.6,19.6,89,0.00,OVC,,0.00,0.0,WeatherDisplay:10.37,2015-01-28 04:51:00,
2015-01-28 05:56:00,42.6,39.6,29.91,North,360,9.2,9.2,89,0.00,OVC,,0.00,0.0,WeatherDisplay:10.37,2015-01-28 04:56:00,
2015-01-28 06:01:00,42.6,39.6,29.91,North,360,16.0,16.0,89,0.00,BKN,,0.00,0.0,WeatherDisplay:10.37,2015-01-28 05:01:00,
2015-01-28 06:06:00,42.6,39.6,29.90,North,360,9.2,9.2,89,0.00,BKN,,0.00,0.0,WeatherDisplay:10.37,2015-01-28 05:06:00,
2015-01-28 06:11:00,42.6,39.6,29.90,SSW,195,9.2,9.2,89,0.00,BKN,,0.00,0.0,WeatherDisplay:10.37,2015-01-28 05:11:00,
2015-01-28 06:16:00,42.7,39.7,29.89,North,360,12.0,12.0,89,0.00,BKN,,0.00,0.0,WeatherDisplay:10.37,2015-01-28 05:16:00,
2015-01-28 06:21:00,42.7,39.7,29.88,South,186,13.0,13.0,89,0.00,BKN,,0.00,0.0,WeatherDisplay:10.37,2015-01-28 05:21:00,
2015-01-28 06:26:00,42.7,39.7,29.88,North,360,19.6,19.6,89,0.00,BKN,,0.00,0.0,WeatherDisplay:10.37,2015-01-28 05:26:00,
2015-01-28 06:31:00,42.7,39.7,29.87,North,360,13.0,13.0,89,0.00,BKN,,0.00,0.0,WeatherDisplay:10.37,2015-01-28 05:31:00,
2015-01-28 06:36:00,42.7,39.7,29.86,North,360,13.8,13.8,89,0.00,BKN,,0.00,0.0,WeatherDisplay:10.37,2015-01-28 05:36:00,
2015-01-28 06:41:00,42.7,39.7,29.86,SW,232,13.8,13.8,89,0.00,BKN,,0.00,0.0,WeatherDisplay:10.37,2015-01-28 05:41:00,
2015-01-28 06:46:00,42.6,39.6,29.86,SSW,198,11.5,11.5,89,0.00,BKN,,0.00,0.0,WeatherDisplay:10.37,2015-01-28 05:46:00,
2015-01-28 06:51:00,42.6,39.6,29.85,South,190,13.8,13.8,89,0.00,BKN,,0.00,0.0,WeatherDisplay:10.37,2015-01-28 05:51:00,
2015-01-28 06:56:00,42.5,39.5,29.85,South,186,11.5,11.5,89,0.00,BKN,,0.00,0.0,WeatherDisplay:10.37,2015-01-28 05:56:00,
2015-01-28 07:01:00,42.5,39.5,29.85,North,360,12.0,12.0,89,0.00,OVC,,0.00,0.0,WeatherDisplay:10.37,2015-01-28 06:01:00,
2015-01-28 07:06:00,42.5,39.8,29.85,West,259,13.0,13.0,90,0.00,OVC,,0.00,0.0,WeatherDisplay:10.37,2015-01-28 06:06:00,
2015-01-28 07:11:00,42.6,39.6,29.84,South,181,10.4,10.4,89,0.00,OVC,,0.00,0.0,WeatherDisplay:10.37,2015-01-28 06:11:00,
2015-01-28 07:16:00,42.6,39.6,29.84,SW,220,15.0,15.0,89,0.00,OVC,,0.00,0.0,WeatherDisplay:10.37,2015-01-28 06:16:00,
2015-01-28 07:21:00,42.6,39.6,29.83,SSW,211,15.0,15.0,89,0.00,OVC,,0.00,0.0,WeatherDisplay:10.37,2015-01-28 06:21:00,
2015-01-28 07:26:00,42.6,39.6,29.83,ENE,73,15.0,15.0,89,0.00,OVC,,0.00,0.0,WeatherDisplay:10.37,2015-01-28 06:26:00,
2015-01-28 07:31:00,42.7,39.7,29.83,North,360,11.5,11.5,89,0.00,OVC,,0.00,0.0,WeatherDisplay:10.37,2015-01-28 06:31:00,
2015-01-28 07:36:00,42.7,39.7,29.82,North,360,15.0,15.0,89,0.00,OVC,,0.00,0.0,WeatherDisplay:10.37,2015-01-28 06:36:00,
2015-01-28 07:41:00,42.7,39.7,29.82,North,360,11.5,11.5,89,0.00,BKN,,0.00,0.0,WeatherDisplay:10.37,2015-01-28 06:41:00,
2015-01-28 07:46:00,42.8,39.8,29.81,North,360,19.6,19.6,89,0.00,BKN,,0.00,0.0,WeatherDisplay:10.37,2015-01-28 06:46:00,
2015-01-28 07:51:00,42.8,39.8,29.81,SSW,209,14.0,14.0,89,0.00,BKN,,0.00,0.0,WeatherDisplay:10.37,2015-01-28 06:51:00,
2015-01-28 07:56:00,42.9,39.9,29.81,North,360,17.3,17.3,89,0.00,BKN,,0.00,0.0,WeatherDisplay:10.37,2015-01-28 06:56:00,
2015-01-28 08:01:00,42.9,39.9,29.81,North,360,17.3,17.3,89,0.00,OVC,,0.00,0.0,WeatherDisplay:10.37,2015-01-28 07:01:00,
2015-01-28 08:06:00,42.8,40.1,29.80,South,181,16.1,16.1,90,0.00,OVC,,0.00,0.0,WeatherDisplay:10.37,2015-01-28 07:06:00,
2015-01-28 08:11:00,42.8,40.1,29.80,North,360,15.0,15.0,90,0.00,OVC,,0.00,0.0,WeatherDisplay:10.37,2015-01-28 07:11:00,
2015-01-28 08:16:00,42.8,40.4,29.80,West,259,19.0,19.0,91,0.00,OVC,,0.00,0.0,WeatherDisplay:10.37,2015-01-28 07:16:00,
2015-01-28 08:21:00,42.9,40.5,29.80,SSW,197,16.1,16.1,91,0.00,OVC,,0.00,0.0,WeatherDisplay:10.37,2015-01-28 07:21:00,
2015-01-28 08:26:00,42.9,40.5,29.78,South,170,12.7,12.7,91,0.00,OVC,,0.00,0.0,WeatherDisplay:10.37,2015-01-28 07:26:00,
2015-01-28 08:31:00,43.0,40.6,29.78,North,360,19.6,19.6,91,0.00,OVC,,0.00,0.0,WeatherDisplay:10.37,2015-01-28 07:31:00,
2015-01-28 08:36:00,43.0,40.6,29.78,WSW,256,12.7,12.7,91,0.00,OVC,,0.00,0.0,WeatherDisplay:10.37,2015-01-28 07:36:00,
2015-01-28 08:41:00,43.1,40.7,29.77,North,360,22.0,22.0,91,0.00,BKN,,0.00,0.0,WeatherDisplay:10.37,2015-01-28 07:41:00,
2015-01-28 08:46:00,43.2,40.8,29.77,North,360,15.0,15.0,91,0.00,BKN,,0.00,7.0,WeatherDisplay:10.37,2015-01-28 07:46:00,
2015-01-28 08:51:00,43.2,40.8,29.76,South,189,15.0,15.0,91,0.00,BKN,,0.00,7.0,WeatherDisplay:10.37,2015-01-28 07:51:00,
2015-01-28 08:56:00,43.3,40.8,29.76,North,360,16.1,16.1,91,0.00,BKN,,0.00,5.0,WeatherDisplay:10.37,2015-01-28 07:56:00,
2015-01-28 09:01:00,43.3,40.8,29.75,North,360,13.8,13.8,91,0.00,BKN,,0.00,5.0,WeatherDisplay:10.37,2015-01-28 08:01:00,
2015-01-28 09:06:00,43.3,40.8,29.75,SSE,167,20.7,20.7,91,0.00,BKN,,0.00,7.0,WeatherDisplay:10.37,2015-01-28 08:06:00,
2015-01-28 09:11:00,43.3,40.8,29.75,North,360,12.7,12.7,91,0.00,BKN,,0.00,7.0,WeatherDisplay:10.37,2015-01-28 08:11:00,
2015-01-28 09:16:00,43.3,41.1,29.75,North,360,21.9,21.9,92,0.00,BKN,,0.00,11.0,WeatherDisplay:10.37,2015-01-28 08:16:00,
2015-01-28 09:21:00,43.2,41.3,29.74,SSE,155,25.3,25.3,93,0.00,BKN,,0.00,12.0,WeatherDisplay:10.37,2015-01-28 08:21:00,
2015-01-28 09:26:00,43.1,41.2,29.74,SSW,210,18.4,18.4,93,0.00,BKN,,0.00,12.0,WeatherDisplay:10.37,2015-01-28 08:26:00,
2015-01-28 09:31:00,43.0,41.1,29.74,North,360,20.7,20.7,93,0.00,BKN,,0.00,14.0,WeatherDisplay:10.37,2015-01-28 08:31:00,
2015-01-28 09:36:00,42.8,41.2,29.73,ESE,123,17.3,17.3,94,0.01,RA,,0.01,19.0,WeatherDisplay:10.37,2015-01-28 08:36:00,
2015-01-28 09:41:00,42.7,41.1,29.72,North,360,18.4,18.4,94,0.01,-DZ,,0.01,12.0,WeatherDisplay:10.37,2015-01-28 08:41:00,
2015-01-28 09:46:00,42.7,41.1,29.72,SSW,210,15.0,15.0,94,0.01,-DZ,,0.01,11.0,WeatherDisplay:10.37,2015-01-28 08:46:00,
2015-01-28 09:51:00,42.7,41.4,29.72,SSW,194,19.6,19.6,95,0.01,-DZ,,0.01,12.0,WeatherDisplay:10.37,2015-01-28 08:51:00,
2015-01-28 09:56:00,42.7,41.4,29.72,East,96,15.0,15.0,95,0.01,-DZ,,0.01,11.0,WeatherDisplay:10.37,2015-01-28 08:56:00,
2015-01-28 10:01:00,42.7,41.4,29.71,ESE,114,18.4,18.4,95,0.01,-DZ,,0.01,18.0,WeatherDisplay:10.37,2015-01-28 09:01:00,
2015-01-28 10:06:00,42.7,41.4,29.69,North,360,21.9,21.9,95,0.01,-DZ,,0.01,21.0,WeatherDisplay:10.37,2015-01-28 09:06:00,
2015-01-28 10:11:00,42.7,41.4,29.69,WSW,250,17.3,17.3,95,0.01,-DZ,,0.01,16.0,WeatherDisplay:10.37,2015-01-28 09:11:00,
2015-01-28 10:16:00,42.8,41.5,29.68,South,169,19.6,19.6,95,0.01,-DZ,,0.01,19.0,WeatherDisplay:10.37,2015-01-28 09:16:00,
2015-01-28 10:21:00,42.8,41.5,29.67,South,181,15.0,15.0,95,0.01,-DZ,,0.01,18.0,WeatherDisplay:10.37,2015-01-28 09:21:00,
2015-01-28 10:26:00,42.8,41.5,29.67,East,100,19.6,19.6,95,0.01,-DZ,,0.01,18.0,WeatherDisplay:10.37,2015-01-28 09:26:00,
2015-01-28 10:31:00,42.8,41.5,29.66,South,173,14.0,14.0,95,0.01,-DZ,,0.01,23.0,WeatherDisplay:10.37,2015-01-28 09:31:00,
2015-01-28 10:36:00,42.8,41.5,29.65,North,360,25.3,25.3,95,0.00,-DZ,,0.01,21.0,WeatherDisplay:10.37,2015-01-28 09:36:00,
2015-01-28 10:41:00,42.8,41.5,29.65,South,180,26.5,26.5,95,0.00,-DZ,,0.01,25.0,WeatherDisplay:10.37,2015-01-28 09:41:00,
2015-01-28 10:46:00,42.9,41.6,29.64,SSE,161,29.9,29.9,95,0.00,-DZ,,0.01,32.0,WeatherDisplay:10.37,2015-01-28 09:46:00,
2015-01-28 10:51:00,43.0,41.7,29.63,SSW,205,34.5,34.5,95,0.00,-DZ,,0.01,28.0,WeatherDisplay:10.37,2015-01-28 09:51:00,
2015-01-28 10:56:00,43.1,41.8,29.63,South,170,21.9,21.9,95,0.00,-DZ,,0.01,26.0,WeatherDisplay:10.37,2015-01-28 09:56:00,
2015-01-28 11:01:00,43.1,41.8,29.62,North,360,23.0,23.0,95,0.00,-DZ,,0.01,33.0,WeatherDisplay:10.37,2015-01-28 10:01:00,
2015-01-28 11:06:00,43.2,41.9,29.62,North,360,25.3,25.3,95,0.00,-DZ,,0.01,30.0,WeatherDisplay:10.37,2015-01-28 10:06:00,
2015-01-28 11:11:00,43.2,41.6,29.62,SSW,197,21.9,21.9,94,0.00,-DZ,,0.01,26.0,WeatherDisplay:10.37,2015-01-28 10:11:00,
2015-01-28 11:16:00,43.3,41.7,29.62,North,360,19.6,19.6,94,0.00,-DZ,,0.01,21.0,WeatherDisplay:10.37,2015-01-28 10:16:00,
2015-01-28 11:21:00,43.3,41.7,29.61,South,180,11.5,11.5,94,0.00,-DZ,,0.01,23.0,WeatherDisplay:10.37,2015-01-28 10:21:00,
2015-01-28 11:26:00,43.4,41.8,29.61,SSW,207,17.3,17.3,94,0.00,-DZ,,0.01,26.0,WeatherDisplay:10.37,2015-01-28 10:26:00,
2015-01-28 11:31:00,43.4,41.5,29.61,SSE,162,23.0,23.0,93,0.00,-DZ,,0.01,28.0,WeatherDisplay:10.37,2015-01-28 10:31:00,
2015-01-28 11:36:00,43.5,41.6,29.60,North,360,20.7,20.7,93,0.00,-DZ,,0.01,26.0,WeatherDisplay:10.37,2015-01-28 10:36:00,
2015-01-28 11:41:00,43.6,41.4,29.60,North,360,22.0,22.0,92,0.00,-DZ,,0.01,30.0,WeatherDisplay:10.37,2015-01-28 10:41:00,
2015-01-28 11:46:00,43.7,41.5,29.59,North,360,19.6,19.6,92,0.00,-DZ,,0.01,28.0,WeatherDisplay:10.37,2015-01-28 10:46:00,
2015-01-28 11:51:00,43.8,41.6,29.58,SSW,197,15.0,15.0,92,0.00,-DZ,,0.01,19.0,WeatherDisplay:10.37,2015-01-28 10:51:00,
2015-01-28 11:56:00,43.8,41.3,29.58,North,360,26.5,26.5,91,0.00,-DZ,,0.01,26.0,WeatherDisplay:10.37,2015-01-28 10:56:00,
2015-01-28 12:01:00,43.9,41.4,29.57,North,360,22.0,22.0,91,0.00,-RA,,0.01,25.0,WeatherDisplay:10.37,2015-01-28 11:01:00,
2015-01-28 12:06:00,44.0,41.5,29.57,North,360,22.0,22.0,91,0.00,-RA,,0.01,25.0,WeatherDisplay:10.37,2015-01-28 11:06:00,
2015-01-28 12:11:00,44.1,41.6,29.55,South,176,25.3,25.3,91,0.00,-RA,,0.01,30.0,WeatherDisplay:10.37,2015-01-28 11:11:00,
2015-01-28 12:16:00,44.1,41.4,29.54,SSW,202,21.9,21.9,90,0.00,-RA,,0.01,32.0,WeatherDisplay:10.37,2015-01-28 11:16:00,
2015-01-28 12:21:00,44.1,41.4,29.54,South,169,26.5,26.5,90,0.00,-RA,,0.01,23.0,WeatherDisplay:10.37,2015-01-28 11:21:00,
2015-01-28 12:26:00,44.1,41.6,29.53,North,360,25.0,25.0,91,0.00,-RA,,0.01,26.0,WeatherDisplay:10.37,2015-01-28 11:26:00,
2015-01-28 12:31:00,44.1,41.4,29.53,WSW,242,28.8,28.8,90,0.00,-RA,,0.01,19.0,WeatherDisplay:10.37,2015-01-28 11:31:00,
2015-01-28 12:36:00,44.2,41.5,29.52,South,176,20.7,20.7,90,0.00,-RA,,0.01,21.0,WeatherDisplay:10.37,2015-01-28 11:36:00,
2015-01-28 12:41:00,44.2,41.5,29.52,North,360,23.0,23.0,90,0.00,-RA,,0.01,21.0,WeatherDisplay:10.37,2015-01-28 11:41:00,
2015-01-28 12:46:00,44.2,41.5,29.51,North,360,23.0,23.0,90,0.00,-RA,,0.01,21.0,WeatherDisplay:10.37,2015-01-28 11:46:00,
2015-01-28 12:51:00,44.2,41.7,29.51,North,360,21.9,21.9,91,0.00,-RA,,0.01,18.0,WeatherDisplay:10.37,2015-01-28 11:51:00,
2015-01-28 12:56:00,44.2,41.7,29.50,South,189,26.5,26.5,91,0.01,-RA,,0.02,18.0,WeatherDisplay:10.37,2015-01-28 11:56:00,
2015-01-28 13:01:00,44.0,41.8,29.49,South,191,26.5,26.5,92,0.02,-RA,,0.03,25.0,WeatherDisplay:10.37,2015-01-28 12:01:00,
2015-01-28 13:06:00,43.9,41.7,29.49,South,184,33.0,33.0,92,0.03,-RA,,0.05,21.0,WeatherDisplay:10.37,2015-01-28 12:06:00,
2015-01-28 13:11:00,43.7,41.8,29.48,South,178,18.4,18.4,93,0.05,-RA,,0.06,16.0,WeatherDisplay:10.37,2015-01-28 12:11:00,
2015-01-28 13:16:00,43.6,41.7,29.48,SW,217,26.5,26.5,93,0.06,-RA,,0.07,16.0,WeatherDisplay:10.37,2015-01-28 12:16:00,
2015-01-28 13:21:00,43.6,41.7,29.46,North,360,18.4,18.4,93,0.07,-RA,,0.08,12.0,WeatherDisplay:10.37,2015-01-28 12:21:00,
2015-01-28 13:26:00,43.6,41.7,29.45,SSW,213,27.6,27.6,93,0.08,-RA,,0.09,21.0,WeatherDisplay:10.37,2015-01-28 12:26:00,
2015-01-28 13:31:00,43.5,41.9,29.46,North,360,25.3,25.3,94,0.08,-RA,,0.10,18.0,WeatherDisplay:10.37,2015-01-28 12:31:00,
2015-01-28 13:36:00,43.5,41.9,29.46,North,360,23.0,23.0,94,0.09,-RA,,0.10,16.0,WeatherDisplay:10.37,2015-01-28 12:36:00,
2015-01-28 13:41:00,43.5,41.9,29.45,SSW,193,19.6,19.6,94,0.11,-RA,,0.12,21.0,WeatherDisplay:10.37,2015-01-28 12:41:00,
2015-01-28 13:46:00,43.4,41.8,29.44,North,360,25.3,25.3,94,0.12,-RA,,0.13,19.0,WeatherDisplay:10.37,2015-01-28 12:46:00,
2015-01-28 13:51:00,43.4,41.8,29.44,North,360,25.3,25.3,94,0.13,-RA,,0.14,16.0,WeatherDisplay:10.37,2015-01-28 12:51:00,
2015-01-28 13:56:00,43.4,41.8,29.43,SSW,196,35.7,35.7,94,0.13,-RA,,0.16,16.0,WeatherDisplay:10.37,2015-01-28 12:56:00,
2015-01-28 14:01:00,43.4,42.1,29.43,North,360,25.3,25.3,95,0.14,RA,,0.17,18.0,WeatherDisplay:10.37,2015-01-28 13:01:00,
2015-01-28 14:06:00,43.4,42.1,29.42,North,360,25.3,25.3,95,0.14,RA,,0.18,14.0,WeatherDisplay:10.37,2015-01-28 13:06:00,
2015-01-28 14:11:00,43.4,42.1,29.41,SSE,163,21.9,21.9,95,0.13,RA,,0.19,14.0,WeatherDisplay:10.37,2015-01-28 13:11:00,
2015-01-28 14:16:00,43.4,42.1,29.41,South,182,29.9,29.9,95,0.12,RA,,0.19,21.0,WeatherDisplay:10.37,2015-01-28 13:16:00,
2015-01-28 14:21:00,43.5,42.2,29.40,North,360,25.3,25.3,95,0.12,RA,,0.20,12.0,WeatherDisplay:10.37,2015-01-28 13:21:00,
2015-01-28 14:26:00,43.6,42.3,29.39,North,360,19.6,19.6,95,0.11,RA,,0.20,23.0,WeatherDisplay:10.37,2015-01-28 13:26:00,
2015-01-28 14:31:00,43.6,42.3,29.39,SSE,163,24.2,24.2,95,0.12,RA,,0.21,12.0,WeatherDisplay:10.37,2015-01-28 13:31:00,
2015-01-28 14:36:00,43.7,42.4,29.38,North,360,18.4,18.4,95,0.11,RA,,0.21,18.0,WeatherDisplay:10.37,2015-01-28 13:36:00,
2015-01-28 14:41:00,43.8,42.5,29.38,SSW,192,21.0,21.0,95,0.09,BKN,,0.21,14.0,WeatherDisplay:10.37,2015-01-28 13:41:00,
2015-01-28 14:46:00,43.9,42.6,29.37,North,360,25.3,25.3,95,0.09,RA,,0.22,19.0,WeatherDisplay:10.37,2015-01-28 13:46:00,
2015-01-28 14:51:00,43.9,42.6,29.37,South,191,21.9,21.9,95,0.09,RA,,0.23,14.0,WeatherDisplay:10.37,2015-01-28 13:51:00,
2015-01-28 14:56:00,44.0,42.7,29.37,North,360,25.3,25.3,95,0.08,RA,,0.23,23.0,WeatherDisplay:10.37,2015-01-28 13:56:00,
2015-01-28 15:01:00,44.1,42.8,29.37,WSW,255,21.9,21.9,95,0.06,BKN,,0.24,26.0,WeatherDisplay:10.37,2015-01-28 14:01:00,
2015-01-28 15:06:00,44.2,42.9,29.37,North,360,26.5,26.5,95,0.07,RA,,0.25,21.0,WeatherDisplay:10.37,2015-01-28 14:06:00,
2015-01-28 15:11:00,44.3,43.0,29.37,North,360,27.0,27.0,95,0.06,RA,,0.25,11.0,WeatherDisplay:10.37,2015-01-28 14:11:00,
2015-01-28 15:16:00,44.4,43.1,29.36,SSW,195,22.0,22.0,95,0.06,BKN,,0.25,9.0,WeatherDisplay:10.37,2015-01-28 14:16:00,
2015-01-28 15:21:00,44.5,43.2,29.36,SSW,200,25.3,25.3,95,0.05,BKN,,0.25,7.0,WeatherDisplay:10.37,2015-01-28 14:21:00,
2015-01-28 15:26:00,44.6,43.3,29.35,SSE,155,19.6,19.6,95,0.07,RA,,0.27,7.0,WeatherDisplay:10.37,2015-01-28 14:26:00,
2015-01-28 15:31:00,44.8,43.5,29.35,North,360,29.9,29.9,95,0.06,RA,,0.27,16.0,WeatherDisplay:10.37,2015-01-28 14:31:00,
2015-01-28 15:36:00,45.0,43.4,29.34,North,360,28.8,28.8,94,0.07,RA,,0.28,12.0,WeatherDisplay:10.37,2015-01-28 14:36:00,